Home > Time Zones > World Clock > Weather > Fiji > Nadi > Past weeks

Flag for Fiji Weather past 2 weeks in Nadi, Fiji

Now
75 °F

Partly cloudy.


Feels Like: 75 °F
Forecast: 78 / 88 °F
Wind: 6 mph from Southeast

Location: Nandi

Current Time: Dec 26, 2014 at 6:49:28 AM

Latest Report: Dec 26, 2014 at 6:00 AM


Visibility: N/A

Pressure: 29.71 "Hg

Humidity: 89%

Dew point: 72 °F

Location of NadiLocation

Historic Weather in Nadi — Graph

°F

Nadi temperature yesterday

Maximum temperature yesterday: 86 °F (at 10:00 AM)
Minimum temperature yesterday: 73 °F (at 7:00 AM)
Average temperature yesterday: 81 °F

Past Weeks' High & Low Weather Summary

 TemperatureHumidityPressure
High91 °F (Dec 13, 2:00 PM)100% (Dec 12, 11:00 PM)29.92 "Hg (Dec 12, 11:00 PM)
Low72 °F (Dec 11, 6:00 AM)46% (Dec 13, 3:00 PM)29.68 "Hg (Dec 21, 4:00 PM)
Average81 °F78%29.80 "Hg
* Reported Dec 11 5:00 AM — Dec 26 5:00 AM, Nadi, Weather by CustomWeather, © 2014

Note: Actual official high and low records may vary slightly from our data, if they occured in-between our weather recording intervals... More about our weather records

Advertising

Nadi weather history for previous 24 hours

 ConditionsComfort  
Time TempWeatherWind HumidityBarometerVisibility
5:00 AM
Dec 26
75 °FPartly cloudy.5 mph89%29.71 "HgN/A
4:00 AM75 °FPartly cloudy.3 mph94%29.74 "HgN/A
3:00 AM75 °FPartly cloudy.5 mph94%29.74 "HgN/A
2:00 AM75 °FPartly cloudy.3 mph94%29.77 "HgN/A
1:00 AM75 °FPartly cloudy.3 mph94%29.77 "HgN/A
12:00 AM75 °FLight rain. Partly cloudy.3 mph100%29.80 "HgN/A
11:00 PM
Dec 25
75 °FPartly cloudy.3 mph100%29.77 "HgN/A
10:00 PM75 °FSprinkles. Partly cloudy.2 mph100%29.77 "HgN/A
9:00 PM81 °FPassing clouds.8 mph84%29.74 "HgN/A
8:00 PM82 °FPassing clouds.6 mph74%29.71 "HgN/A
7:00 PM82 °FScattered clouds.8 mph74%29.71 "HgN/A
6:00 PM82 °FBroken clouds.9 mph70%29.68 "HgN/A
5:00 PM86 °FPartly sunny.14 mph66%29.68 "HgN/A
4:00 PM86 °FPartly sunny.13 mph62%29.68 "HgN/A
3:00 PM84 °FPartly sunny.15 mph66%29.71 "HgN/A
2:00 PM86 °FPartly sunny.14 mph62%29.71 "HgN/A
1:00 PM86 °FBroken clouds.13 mph62%29.71 "HgN/A
12:00 PM86 °FScattered clouds.6 mph62%29.74 "HgN/A
11:00 AM84 °FScattered clouds.8 mph58%29.77 "HgN/A
10:00 AM86 °FPartly sunny.3 mph59%29.77 "HgN/A
9:00 AM82 °FScattered clouds.7 mph66%29.77 "HgN/A
8:00 AM77 °FScattered clouds.5 mph79%29.77 "HgN/A
7:00 AM73 °FScattered clouds.5 mph89%29.74 "HgN/A
6:00 AM75 °FPassing clouds.3 mph83%29.71 "HgN/A
Weather by CustomWeather, © 2014

See weather overviewHow to use our weather pages